Regional Weather Roundup
Issued by NWS

Home | Current Version | Previous Version | Text Only | Print | Product List | Glossary On
Versions: 1 2 3 4 5 6 7 8 9 10 11 12 13 14 15 16 17 18 19 20 21 22 23 24 25 26 27 28 29 30 31 32 33 34 35 36 37 38 39 40 41 42 43 44 45 46 47 48 49 50
000
ASUS43 KDMX 261307
RWRIA

WEATHER ROUNDUP FOR IOWA
NATIONAL WEATHER SERVICE DES MOINES IA
800 AM CDT SUN APR 26 2015

NOTE: "FAIR" INDICATES FEW OR NO CLOUDS BELOW 12,000 FEET WITH NO
SIGNIFICANT WEATHER AND/OR OBSTRUCTIONS TO VISIBILITY.

* - THESE STATIONS ARE NOT NWS STATIONS...THUS NOT UNDER NWS
QUALITY CONTROL.  THEY ALSO DO NOT REPORT WEATHER SUCH
AS PRECIPITATION OR FOG.

IAZ001>003-012>014-020>022-031>034-043>046-261400-
   NORTHWEST IOWA

CITY           SKY/WX    TMP DP  RH WIND       PRES   REMARKS
CARROLL *      SUNNY     41  39  93 NE8       30.03R
CHEROKEE *     SUNNY     39  39 100 CALM      30.04S
DENISON *      SUNNY     41  41 100 NE7       30.01R
LE MARS *      SUNNY     41  37  87 NE6       30.06R
ORANGE CITY *  SUNNY     41  37  87 E6        30.05R
SHELDON *      SUNNY     41  39  93 CALM      30.04R
SIOUX CITY     SUNNY     46  37  71 E8        30.04R
SPENCER        SUNNY     39  36  89 N3        30.05R FOG
STORM LAKE *   SUNNY     43  39  87 NE8       30.04S
$$

IAZ055>058-069>071-079>083-090>094-261400-
   SOUTHWEST IOWA

CITY           SKY/WX    TMP DP  RH WIND       PRES   REMARKS
ATLANTIC *     SUNNY     41  41 100 NE6       30.01R
AUDUBON *      SUNNY     43  39  87 E7        30.03R
CLARINDA *     MOSUNNY   45  39  81 E9        30.01R
COUNCIL BLFS * SUNNY     43  43 100 NE8       30.00R
CRESTON *      SUNNY     43  43 100 E10       30.00S
HARLAN  *      SUNNY     43  43 100 NE9       30.05R
LAMONI         PTSUNNY   44  37  76 NE6       30.00R
RED OAK *      SUNNY     43  41  93 NE7       30.00R
SHENANDOAH *   SUNNY     45  41  87 E9        30.00R
$$

IAZ047>049-059>061-072>074-084-261400-
   CENTRAL IOWA

CITY           SKY/WX    TMP DP  RH WIND       PRES   REMARKS
AMES           SUNNY     42  35  76 CALM      30.03R
ANKENY *       SUNNY     43  37  81 NE6       30.03R
CHARITON *     SUNNY     45  39  81 NE8       30.00R
DES MOINES     MOSUNNY   46  36  68 NE10      30.03R
GRINNELL*      SUNNY     41  32  70 NE7       30.03R
KNOXVILLE *    SUNNY     45  36  70 NE8       30.00R
MARSHALLTOWN   SUNNY     41  32  70 E5        30.03R
PELLA *        SUNNY     45  39  81 NE6       30.03R
PERRY *          N/A     43  37  81 NE6       30.03R
$$

IAZ004>006-015-016-023>025-035-036-261400-
   NORTH CENTRAL IOWA

CITY           SKY/WX    TMP DP  RH WIND       PRES   REMARKS
ALGONA *       SUNNY     41  41 100 CALM      30.05R
CLARION *      SUNNY     43  39  87 E7        30.04R
ESTHERVILLE    SUNNY     40  34  79 N7        30.04R
FORT DODGE *   SUNNY     39  36  87 CALM      30.05R
MASON CITY     SUNNY     40  31  70 E3        30.06R
FOREST CITY *  SUNNY     39  32  75 SE6       30.04R WCI  35
IOWA FALLS *     N/A     41  34  75 NE5       30.04R
$$

IAZ007>011-017>019-026>030-037>042-050>054-066-261400-
   NORTHEAST IOWA

CITY           SKY/WX    TMP DP  RH WIND       PRES   REMARKS
CEDAR RAPIDS   SUNNY     42  26  53 NE9       30.01R
CHARLES CITY * SUNNY     39  25  56 NE8       30.05R WCI  34
CLINTON *      SUNNY     39  28  65 NE10      30.04R WCI  32
DECORAH *      SUNNY     41  21  45 NE5       30.04R
DUBUQUE        SUNNY     38  25  59 NE8       30.01R WCI  32
MONTICELLO *   SUNNY     39  27  60 NE6       30.02R WCI  35
OELWEIN *      SUNNY     39  25  56 NE10      30.04R WCI  32
WATERLOO       SUNNY     39  28  64 E3        30.03R
$$

IAZ064-065-067-068-078-261400-
   EAST CENTRAL IOWA

CITY           SKY/WX    TMP DP  RH WIND       PRES   REMARKS
DAVENPORT      SUNNY     40  28  62 NE9       30.01R WCI  34
IOWA CITY      SUNNY     43  28  55 NE8       30.02R
MT. PLEASANT * SUNNY     41  36  81 N9        30.00R
MUSCATINE *    SUNNY     41  30  65 NE6       30.02R
QUAD CITIES    SUNNY     42  28  57 NE5       30.00R
$$

IAZ062-063-075>077-085>089-095>099-261400-
   SOUTHEAST IOWA

CITY           SKY/WX    TMP DP  RH WIND       PRES   REMARKS
BURLINGTON     SUNNY     43  31  62 NE13      29.98R
FAIRFIELD *    SUNNY     43  34  70 NE10      30.00R
FORT MADISON * SUNNY     43  34  70 NE8       29.99S
KEOKUK *       SUNNY     45  32  61 NE6       29.98R
OSKALOOSA *      N/A     43  36  75 NE13      30.01R
CENTERVILLE *  SUNNY     43  37  81 NE9       30.00R
OTTUMWA        SUNNY     44  35  70 NE10      30.00R
WASHINGTON *   SUNNY     41  37  87 NE8       30.01R
$$

ABBREVIATIONS USED IN REMARKS
   TC - TEMPERATURES IN CELSIUS
  WCI - WIND CHILL INDEX
   HX - HEAT INDEX
  VSB - VISIBILITY
$$




USA.gov is the U.S. government's official web portal to all federal, state and local government web resources and services.